Location: Linton
(52.0943°N, 0.2848°E)
Time: 18:15:30
(UTC+01:00)

OTV 5 (USA 277) - Visible Passes

Search period start: 18 June 2018 00:00
Search period end: 28 June 2018 00:00
Orbit: 313 x 320 km, 54.5° (Epoch: 18 June)

Date Brightness Start Highest point End Pass type
(mag) Time Alt. Az. Time Alt. Az. Time Alt. Az.
18 Jun ? 00:48:45 10° WNW 00:51:24 46° N 00:54:02 10° ENE visible
18 Jun ? 02:23:09 10° WNW 02:25:52 86° NNE 02:28:36 10° ESE visible
18 Jun ? 23:28:44 10° W 23:31:25 60° NNW 23:34:06 10° ENE visible
19 Jun ? 01:03:18 10° WNW 01:05:57 51° N 01:08:37 10° E visible
19 Jun ? 02:37:39 10° WNW 02:40:19 52° SSW 02:42:58 10° SE visible
19 Jun ? 22:08:53 10° WSW 22:11:33 68° SSE 22:14:16 10° ENE visible
19 Jun ? 23:43:20 10° W 23:45:58 48° N 23:48:37 10° ENE visible
20 Jun ? 01:17:47 10° WNW 01:20:29 69° NNE 01:23:12 10° E visible
20 Jun ? 02:52:16 10° W 02:54:39 27° SW 02:57:01 10° SSE visible
20 Jun ? 22:23:20 10° WSW 22:26:02 72° NNW 22:28:44 10° ENE visible
20 Jun ? 23:57:54 10° WNW 00:00:32 47° N 00:03:11 10° E visible
21 Jun ? 01:32:16 10° WNW 01:34:58 73° SSW 01:37:40 10° ESE visible
21 Jun ? 03:07:20 10° WSW 03:08:23 13° SW 03:08:23 13° SW visible
21 Jun ? 22:37:54 10° W 22:40:33 52° N 22:43:13 10° ENE visible
22 Jun ? 00:12:24 10° WNW 00:15:05 57° NNE 00:17:46 10° E visible
22 Jun ? 01:46:47 10° WNW 01:49:21 38° SSW 01:49:39 36° SSW visible
22 Jun ? 22:52:29 10° WNW 22:55:07 46° N 22:57:45 10° ENE visible
23 Jun ? 00:26:53 10° WNW 00:29:36 85° NNE 00:31:35 17° ESE visible
23 Jun ? 02:01:34 10° W 02:02:23 15° WSW 02:02:23 15° WSW visible
23 Jun ? 23:07:01 10° WNW 23:09:40 51° N 23:12:20 10° E visible
24 Jun ? 00:41:22 10° WNW 00:44:02 53° SSW 00:44:38 41° SSE visible
24 Jun ? 23:21:30 10° WNW 23:24:13 68° NNE 23:26:55 10° E visible
25 Jun ? 00:56:00 10° W 00:57:51 25° WSW 00:57:51 25° WSW visible
25 Jun ? 23:35:59 10° WNW 23:38:41 74° SSW 23:40:21 20° ESE visible
26 Jun ? 01:11:02 10° WSW 01:11:11 11° WSW 01:11:11 11° WSW visible
26 Jun ? 22:16:08 10° WNW 22:18:48 57° N 22:21:29 10° E visible
26 Jun ? 23:50:31 10° WNW 23:53:05 38° SSW 23:53:45 31° S visible
27 Jun ? 22:30:36 10° WNW 22:33:19 85° NNE 22:36:02 10° ESE visible
